Terug naar catalogus

THORAD AGENA D DEB

ActiefLEO
NORAD 4180·DEBRIS·🇺🇸 United States

Gelanceerd Sep 30, 1969 vanaf Vandenberg Space Force Base

Loading…

Volgende Passages (komende 24 uur)

TLE

VersSource: Space-Track

Epoch: Sep 14, 2026, 13:21 UTC

1 04180U 69082AY  26257.55667877  .00000326  00000-0  13066-3 0  9991
2 04180  69.9769  94.4376 0070214 114.5410 246.3056 14.35223499960614

Volg THORAD AGENA D DEB in realtime met AllMySat

Download on the App Store